Location: *
(46.1866°S, 178.5290°W)
Time: 06:12:39
(UTC+00:00)

SKYMED 2 - Pass Details

Date: 19 May 2021
Orbit: 621 x 624 km, 97.9° (Epoch: 14 June)

Event Time Altitude Azimuth Distance (km) Brightness Sun altitude
Rises 05:04:56 0° 12° (NNE) 2,900 7.1 -6.6°
Reaches altitude 10° 05:07:07 10° 11° (N) 2,002 6.3 -7.0°
Maximum altitude 05:11:29 81° 283° (WNW) 646 3.8 -7.7°
Drops below altitude 10° 05:15:55 10° 195° (SSW) 2,032 6.2 -8.4°
Sets 05:18:09 0° 194° (SSW) 2,948 7.0 -8.8°
